Palma de Mallorca, Spain

5:04 AM CET on December 03, 2016 (GMT +0100)
Palma de Mallorca

Weather History for 08306 - March, 2013

Change the Weather History Date:

Tuesday, March 26, 2013

  Actual Average Record
Temperature  
Mean Temperature 62 °F -  
Max Temperature 67 °F - - ()
Min Temperature 58 °F - - ()
Degree Days  
Heating Degree Days 2    
Growing Degree Days 12 (Base 50)    
Moisture  
Dew Point 53 °F    
Average Humidity 72    
Maximum Humidity 94    
Minimum Humidity 44    
Precipitation  
Precipitation 0.04 in - - ()
Sea Level Pressure  
Sea Level Pressure 29.64 in    
Wind  
Wind Speed 13 mph ()    
Max Wind Speed 24 mph    
Max Gust Speed 34 mph    
Visibility 6.8 miles    
Events Rain    
T = Trace of Precipitation, MM = Missing Value Source: Averaged Metar Reports

Daily Weather History Graph

Daily Weather History Graph

Search for Another Location

Airport or City:

Trip Planner

Search our weather history database for the weather conditions in past years. The results will help you decide how hot, cold, wet, or windy it might be!

Date:

Astronomy

Mar. 26, 2013 Rise Set
Actual Time 6:42 AM CET 7:07 PM CET
Civil Twilight 6:15 AM CET 7:34 PM CET
Nautical Twilight 5:44 AM CET 8:05 PM CET
Astronomical Twilight 5:11 AM CET 8:38 PM CET
Moon 6:27 PM CET (3/26) 5:50 AM CET (3/26)
Length of Visible Light 13h 18m
Length of Day
12h 24m
Waxing Gibbous, 99% of the Moon is Illuminated
Mar 26
Waxing Gibbous
Mar 27
Full
Apr 3
Last Quarter
Apr 10
New
Apr 18
First Quarter

Hourly Weather History & Observations

Time (CET) Temp. Dew Point Humidity Pressure Visibility Wind Dir Wind Speed Gust Speed Precip Events Conditions
12:00 AM 60.8 °F 50.0 °F 68% 29.65 in 6.2 mi WSW 20.7 mph - N/A   Partly Cloudy
12:30 AM 60.8 °F 51.8 °F 72% 29.68 in 6.2 mi West 16.1 mph - N/A   Partly Cloudy
1:00 AM 60 °F 47 °F 53% 29.67 in 16 mi WSW 12.7 mph - -   Scattered Clouds
1:00 AM 60.8 °F 50.0 °F 68% 29.65 in 6.2 mi WSW 15.0 mph - N/A   Partly Cloudy
1:30 AM 62.6 °F 50.0 °F 63% 29.65 in 6.2 mi WSW 12.7 mph - N/A   Partly Cloudy
2:00 AM 62.6 °F 50.0 °F 63% 29.65 in 6.2 mi WSW 15.0 mph 31.1 mph N/A   Partly Cloudy
2:30 AM 62.6 °F 50.0 °F 63% 29.62 in 6.2 mi West 24.2 mph - N/A   Partly Cloudy
3:00 AM 60.8 °F 50.0 °F 68% 29.62 in 6.2 mi WSW 20.7 mph - N/A   Partly Cloudy
3:30 AM 60.8 °F 51.8 °F 72% 29.62 in 6.2 mi WSW 20.7 mph 34.5 mph N/A   Partly Cloudy
4:00 AM 60.8 °F 51.8 °F 72% 29.59 in 6.2 mi WSW 23.0 mph - N/A   Partly Cloudy
4:30 AM 60.8 °F 50.0 °F 68% 29.59 in 6.2 mi West 21.9 mph 34.5 mph N/A   Partly Cloudy
5:00 AM 62.6 °F 50.0 °F 63% 29.59 in 6.2 mi West 19.6 mph - N/A   Partly Cloudy
5:30 AM 60.8 °F 50.0 °F 68% 29.59 in 6.2 mi West 23.0 mph - N/A   Partly Cloudy
6:00 AM 62.6 °F 50.0 °F 63% 29.59 in 6.2 mi West 21.9 mph - N/A   Partly Cloudy
6:30 AM 60.8 °F 50.0 °F 68% 29.59 in 6.2 mi West 19.6 mph - N/A   Partly Cloudy
7:00 AM 60 °F 47 °F 51% 29.61 in 16 mi West 12.7 mph - -   Scattered Clouds
7:00 AM 60.8 °F 50.0 °F 68% 29.59 in 6.2 mi West 16.1 mph - N/A   Partly Cloudy
7:30 AM 62.6 °F 50.0 °F 63% 29.62 in 6.2 mi West 11.5 mph - N/A   Partly Cloudy
8:00 AM 64.4 °F 51.8 °F 64% 29.62 in 6.2 mi NNW 9.2 mph - N/A   Partly Cloudy
8:30 AM 62.6 °F 53.6 °F 72% 29.65 in 6.2 mi NNW 20.7 mph - N/A   Partly Cloudy
9:00 AM 64.4 °F 51.8 °F 64% 29.65 in 6.2 mi NW 16.1 mph - N/A   Partly Cloudy
9:30 AM 64.4 °F 51.8 °F 64% 29.65 in 6.2 mi NW 11.5 mph - N/A   Partly Cloudy
10:00 AM 64.4 °F 51.8 °F 64% 29.65 in 6.2 mi NW 11.5 mph - N/A   Partly Cloudy
10:30 AM 66.2 °F 51.8 °F 60% 29.68 in 6.2 mi NW 9.2 mph - N/A   Partly Cloudy
11:00 AM 66.2 °F 53.6 °F 64% 29.68 in 6.2 mi SW 6.9 mph - N/A   Partly Cloudy
11:30 AM 66.2 °F 55.4 °F 68% 29.68 in 6.2 mi WSW 13.8 mph - N/A   Partly Cloudy
12:00 PM 66.2 °F 55.4 °F 68% 29.68 in 6.2 mi WSW 11.5 mph - N/A   Partly Cloudy
12:30 PM 66.2 °F 53.6 °F 64% 29.68 in 6.2 mi WSW 12.7 mph - N/A   Scattered Clouds
1:00 PM 66 °F 49 °F 44% 29.67 in 16 mi WSW 11.5 mph - -   Scattered Clouds
1:00 PM 66.2 °F 53.6 °F 64% 29.65 in 6.2 mi WSW 10.4 mph - N/A   Partly Cloudy
1:30 PM 66.2 °F 53.6 °F 64% 29.65 in 6.2 mi SW 9.2 mph - N/A   Partly Cloudy
2:00 PM 64.4 °F 53.6 °F 68% 29.65 in 6.2 mi WSW 15.0 mph - N/A   Partly Cloudy
2:30 PM 64.4 °F 53.6 °F 68% 29.65 in 6.2 mi WSW 12.7 mph - N/A   Partly Cloudy
3:00 PM 64.4 °F 53.6 °F 68% 29.65 in 6.2 mi SW 15.0 mph - N/A   Partly Cloudy
3:30 PM 64.4 °F 53.6 °F 68% 29.65 in 6.2 mi WSW 13.8 mph - N/A   Partly Cloudy
4:00 PM 62.6 °F 53.6 °F 72% 29.65 in 6.2 mi SW 12.7 mph - N/A   Partly Cloudy
4:30 PM 62.6 °F 53.6 °F 72% 29.65 in 6.2 mi SW 11.5 mph - N/A   Partly Cloudy
5:00 PM 62.6 °F 53.6 °F 72% 29.65 in 6.2 mi SW 9.2 mph - N/A   Partly Cloudy
5:30 PM 62.6 °F 55.4 °F 77% 29.65 in 6.2 mi SW 12.7 mph - N/A   Partly Cloudy
6:00 PM 60.8 °F 55.4 °F 82% 29.65 in 6.2 mi SSW 8.1 mph - N/A   Partly Cloudy
6:30 PM 60.8 °F 55.4 °F 82% 29.65 in 6.2 mi SSW 9.2 mph - N/A   Partly Cloudy
7:00 PM 59 °F 53 °F 73% 29.66 in 9 mi SSW 9.2 mph - - Rain Light Rain
7:00 PM 60.8 °F 55.4 °F 82% 29.65 in 6.2 mi SSW 8.1 mph - N/A Rain Light Rain
7:30 PM 59.0 °F 57.2 °F 94% 29.65 in 6.2 mi South 3.5 mph - N/A Rain Light Rain
8:00 PM 59.0 °F 57.2 °F 94% 29.65 in 6.2 mi South 1.2 mph - N/A Rain Light Rain
8:30 PM 59.0 °F 57.2 °F 94% 29.65 in 6.2 mi SW 6.9 mph - N/A Rain Light Rain
9:00 PM 59.0 °F 57.2 °F 94% 29.65 in 6.2 mi SSW 3.5 mph - N/A Rain Light Rain
9:30 PM 59.0 °F 57.2 °F 94% 29.65 in 6.2 mi SSW 1.2 mph - N/A Rain Light Rain
10:00 PM 59.0 °F 57.2 °F 94% 29.65 in 5.6 mi Calm Calm - N/A   Light Drizzle
10:30 PM 59.0 °F 57.2 °F 94% 29.62 in 5.6 mi SSW 3.5 mph - N/A   Mostly Cloudy
11:00 PM 59.0 °F 57.2 °F 94% 29.62 in 5.6 mi SW 6.9 mph - N/A   Scattered Clouds
11:30 PM 59.0 °F 57.2 °F 94% 29.62 in 5.6 mi SW 8.1 mph - N/A   Scattered Clouds